Theta_e
322 321 320 320 321 321 321 321 321 321 321 321 321 321 321 321 320 320 319 319 320 320 319 320 321 323 322 319 320 336 342 337 330 325 323 324 326 329 326 327 329 326 331 331 330 334 332
320 320 321 321 321 321 321 321 321 321 321 321 320 320 320 320 320 319 319 318 318 318 319 320 321 323 319 316 328 327 322 325 325 322 322 330 331 333 331 329 328 327 333 330 331 332 332
320 320 320 321 321 320 320 320 320 321 320 320 320 320 320 319 319 319 319 318 317 318 319 321 322 323 323 320 327 328 322 319 322 320 322 333 335 333 329 327 332 334 328 329 327 329 329
320 320 320 320 320 320 320 320 320 320 320 320 320 320 318 318 318 318 317 316 316 319 322 322 323 324 317 327 329 323 322 318 320 321 323 335 338 332 326 328 327 327 327 317 323 326 327
321 321 319 319 319 320 319 320 319 320 320 320 319 318 317 317 317 317 316 315 318 324 323 323 324 324 313 324 320 325 325 317 318 319 323 330 331 328 329 322 318 315 311 314 320 326 327
321 321 320 320 319 319 318 318 318 319 319 319 318 316 316 317 317 316 315 315 322 323 325 328 327 320 319 316 321 324 322 318 316 316 315 321 325 320 317 317 308 310 311 315 318 326 327
322 321 321 320 319 318 318 318 317 318 317 317 316 316 317 316 316 315 315 323 321 320 326 317 317 316 317 320 321 320 319 315 314 312 309 317 316 313 315 319 319 317 315 314 321 327 323
322 320 320 320 319 318 318 317 317 316 316 316 316 315 316 316 315 314 315 321 319 321 313 318 317 317 320 320 313 317 319 311 309 306 312 315 311 317 319 319 316 315 313 317 321 325 322
321 321 320 320 319 318 318 317 317 316 315 315 315 315 315 314 313 314 322 321 326 325 314 315 318 317 318 319 314 314 317 316 309 307 308 309 313 317 317 315 311 312 311 315 314 322 323
321 320 319 319 319 318 318 317 317 316 316 315 315 314 313 311 314 324 322 326 327 326 309 310 313 316 319 318 312 319 321 316 312 307 309 309 314 315 314 311 313 308 319 317 316 318 311
321 321 320 320 319 318 318 317 317 316 316 315 315 313 311 310 317 319 324 327 327 323 299 312 312 321 318 314 315 314 319 315 310 309 310 308 311 312 310 310 313 310 317 316 314 313 316
322 322 321 320 320 319 318 317 317 316 316 315 314 313 311 316 319 321 326 326 324 307 299 308 314 312 312 314 313 314 313 317 317 311 311 310 316 314 312 314 313 315 314 316 315 312 304
323 321 321 320 319 319 318 317 317 316 316 314 312 310 311 322 320 327 326 322 307 302 311 307 309 311 312 310 311 312 310 309 307 303 304 308 308 312 313 310 312 311 308 302 301 302 303
321 320 319 319 319 318 318 318 317 316 315 313 310 309 315 320 322 326 324 313 303 308 307 312 309 309 309 311 310 310 309 307 311 308 306 303 301 308 311 308 306 310 309 303 298 299 301
320 320 320 319 318 318 318 318 317 315 314 312 308 324 322 325 324 325 317 306 307 309 311 308 309 307 308 310 310 309 308 308 310 311 305 305 304 312 313 313 311 308 307 314 307 306 302
321 321 320 319 319 318 318 318 317 315 314 312 318 322 324 329 329 323 313 304 312 313 311 310 306 309 306 308 307 308 309 311 309 312 313 309 303 311 313 315 314 312 315 305 307 297 298
322 321 320 319 318 318 318 318 317 315 313 312 320 318 326 329 327 317 307 311 313 314 313 309 308 307 308 307 308 308 309 312 312 311 313 310 307 307 311 310 309 312 309 309 308 307 302
322 321 320 319 318 318 317 317 316 313 310 317 317 312 327 328 313 313 309 314 307 312 313 311 311 310 309 310 307 307 307 311 315 313 308 312 308 303 306 313 316 313 305 306 305 302 306
322 322 321 319 319 318 317 316 315 313 311 315 314 314 327 325 308 309 314 314 313 311 311 310 309 310 311 309 306 309 310 314 314 311 310 312 307 301 302 307 313 309 309 310 310 308 304
322 322 321 319 319 318 317 316 315 313 312 315 314 307 315 320 318 312 311 312 311 314 312 313 311 311 309 307 310 308 309 312 314 312 323 315 307 303 298 304 308 304 307 311 308 303 305
322 322 321 319 319 318 317 316 316 314 312 315 317 311 314 308 312 313 312 312 312 310 313 313 310 309 309 305 307 307 308 309 312 317 312 310 303 306 306 308 309 308 307 309 306 307 303
321 321 320 319 319 318 317 317 317 314 312 318 314 313 316 312 316 315 311 311 310 312 313 310 309 310 310 307 308 306 308 309 307 312 312 312 306 308 304 307 307 305 308 308 309 308 307
320 320 319 318 318 318 318 317 317 315 312 321 322 322 314 308 310 308 310 312 312 314 315 315 313 311 309 311 313 313 313 312 310 310 309 310 307 306 301 306 306 301 307 307 309 309 310
318 318 318 317 318 318 317 317 318 317 314 320 322 321 313 306 309 308 309 312 312 313 312 315 315 312 314 317 316 314 311 310 310 309 310 307 307 306 301 304 294 306 312 312 310 312 314
317 317 316 317 317 318 318 318 319 319 316 318 323 320 314 307 310 309 311 311 313 316 313 313 314 317 319 314 308 305 305 305 306 308 308 309 307 301 298 298 302 305 310 310 309 309 313
316 316 317 317 317 318 318 318 319 319 316 317 322 326 318 310 307 312 310 312 311 312 313 314 317 319 316 310 306 302 298 303 303 305 312 309 310 303 301 296 294 306 313 316 313 302 320
315 315 316 316 317 317 317 318 319 318 316 316 320 326 317 310 313 314 309 310 316 315 312 314 315 312 315 307 303 301 302 306 301 301 304 305 305 301 301 298 302 313 315 316 301 308 322
315 316 316 316 317 317 317 318 319 317 316 316 319 326 319 314 314 317 316 312 311 315 310 316 312 311 309 306 304 304 304 307 305 307 304 303 302 301 302 299 296 316 314 307 317 320 321
315 315 315 316 317 317 318 318 317 316 316 315 316 323 323 314 313 318 318 318 316 315 315 317 314 317 312 308 308 307 304 308 307 300 312 302 305 303 304 303 319 318 317 317 318 318 317
Wind_Speed
15 15 15 15 14 13 13 13 13 12 13 13 14 13 13 13 13 13 14 14 14 14 14 13 11 10 9 9 2 8 7 6 9 11 14 13 13 8 0 10 7 19 7 6 5 5 5
15 15 15 15 15 14 14 14 14 14 14 14 14 14 14 14 14 14 14 15 14 15 14 12 10 9 7 9 5 9 10 10 13 14 14 15 9 6 19 7 7 15 9 7 3 8 11
15 15 16 16 16 16 15 15 15 15 15 15 15 16 15 15 15 15 14 15 15 15 14 11 8 8 10 4 2 7 9 11 12 11 12 12 6 16 4 12 19 13 10 7 4 3 8
16 17 17 17 17 16 16 16 16 16 16 16 17 17 17 16 15 15 14 15 16 15 13 9 7 9 2 3 4 6 7 5 5 9 14 10 9 13 10 5 7 10 9 3 2 3 2
16 16 18 18 18 16 16 16 17 17 17 17 17 18 17 16 14 14 14 16 16 11 7 5 7 8 6 4 9 8 8 6 8 10 7 7 7 14 8 8 3 7 6 6 3 10 4
18 17 18 18 18 18 18 18 19 18 18 18 19 18 17 14 13 13 15 11 7 11 8 10 12 11 6 6 6 4 3 6 6 7 9 9 9 14 13 13 5 5 3 5 12 9 11
17 16 17 18 18 18 19 20 20 20 20 20 21 19 16 15 12 11 13 6 7 7 11 14 8 4 7 7 3 8 6 6 6 7 12 12 11 13 9 10 4 7 12 13 15 9 8
17 18 19 18 18 20 20 20 20 20 21 21 21 20 17 17 12 7 7 8 9 9 4 1 1 6 1 9 8 7 7 11 8 11 14 9 13 18 11 12 7 9 1 9 2 7 2
18 17 18 17 20 21 19 21 21 21 22 22 22 21 18 17 18 7 12 7 6 8 8 7 4 8 8 13 5 10 11 10 8 12 14 16 9 13 3 9 8 9 9 8 6 5 3
16 17 21 21 20 21 22 23 23 22 22 21 21 22 20 19 6 10 7 4 7 4 9 10 10 6 9 6 6 5 11 8 5 10 5 10 16 2 2 9 13 12 10 3 7 14 5
13 13 14 16 18 21 23 24 24 24 23 21 21 20 19 8 12 10 6 8 6 8 7 4 7 4 1 8 9 7 2 5 13 8 5 11 9 6 13 11 13 13 5 11 14 11 9
16 16 17 17 18 19 23 22 26 26 24 23 21 18 18 6 7 14 10 11 8 9 2 8 6 9 13 8 6 7 6 8 9 8 8 16 6 7 11 9 6 13 7 10 15 11 14
17 18 19 19 18 19 21 22 22 24 25 24 22 16 10 9 10 9 9 9 8 9 3 6 8 7 9 8 7 11 11 11 10 9 11 14 14 9 10 12 10 11 14 10 14 12 3
17 20 21 21 19 20 20 22 23 25 27 27 26 17 11 9 13 10 8 10 12 4 5 5 4 3 7 6 7 3 7 12 8 10 12 8 12 14 12 10 16 8 15 12 6 5 7
18 19 16 18 19 20 21 22 24 27 29 28 30 6 7 9 13 9 8 10 13 1 6 5 7 11 9 8 7 5 5 8 7 5 10 7 5 10 3 8 12 15 10 17 8 7 13
12 16 16 18 19 20 21 22 23 27 31 26 8 11 11 12 9 8 9 16 19 4 5 5 11 3 7 12 8 9 5 6 2 3 9 13 6 6 8 5 13 12 4 7 5 6 19
12 14 15 17 19 20 21 21 22 26 32 29 6 7 8 11 7 7 11 18 7 3 3 7 8 6 8 10 4 12 6 8 2 5 2 9 11 2 3 1 15 8 6 12 7 6 6
13 13 12 14 17 18 20 20 19 22 32 11 7 10 8 9 9 9 13 21 4 4 6 10 6 9 7 7 5 7 2 6 9 6 10 10 10 12 4 5 14 11 8 18 12 3 2
13 13 12 13 15 17 19 18 17 16 16 10 8 11 7 8 11 12 19 14 3 12 7 8 6 7 5 8 4 10 3 11 2 6 11 12 10 7 11 8 23 4 6 8 9 6 7
13 13 10 12 15 16 18 17 16 14 11 8 7 6 9 9 11 19 21 18 13 12 15 5 5 1 6 8 9 6 6 4 9 5 6 6 12 13 10 3 8 5 15 6 2 6 6
14 12 10 11 13 15 16 17 16 16 13 6 6 7 15 10 10 15 18 21 18 12 14 9 7 9 10 7 8 9 9 9 10 13 5 7 13 15 16 2 11 9 8 14 6 11 12
14 13 9 10 13 15 15 16 15 17 23 6 6 10 12 14 18 18 15 16 18 16 13 13 13 11 10 9 8 11 8 7 7 8 8 9 11 12 12 15 16 11 11 12 17 6 2
12 9 9 10 12 14 13 15 14 14 13 6 10 11 9 10 15 15 14 18 16 14 17 16 12 12 12 10 7 5 8 10 12 8 9 9 11 9 13 12 8 9 8 8 11 18 23
8 9 10 11 12 13 12 12 12 10 9 8 10 8 9 12 12 14 18 20 19 16 14 17 8 11 1 6 5 5 12 15 10 9 7 11 8 8 11 13 13 6 3 10 10 7 2
8 10 11 13 13 13 11 11 10 9 8 8 9 8 8 10 13 16 19 18 18 15 12 16 9 10 8 5 3 8 9 9 10 11 10 8 7 7 10 11 13 16 13 7 11 10 13
9 11 12 13 14 12 11 11 9 7 8 7 9 8 6 7 9 16 16 17 12 9 13 14 12 4 4 5 8 9 7 3 2 4 5 9 7 6 9 11 13 8 9 7 5 6 18
11 12 13 13 13 12 11 11 11 5 7 6 9 8 5 9 17 14 11 12 11 11 10 6 12 10 8 6 9 9 10 4 6 4 8 5 6 9 9 9 10 9 7 4 6 5 12
11 12 12 12 11 11 10 10 5 5 7 6 8 8 6 8 17 20 17 14 12 9 8 9 9 8 8 9 9 8 3 2 5 9 5 7 8 10 7 11 11 12 5 4 6 6 8
11 11 11 10 10 9 9 5 4 6 7 5 7 6 4 7 11 20 20 18 17 14 9 7 9 3 3 5 7 6 3 6 6 8 9 10 10 8 9 6 8 3 5 3 4 6 6
Wind_Direction
18 17 16 11 6 1 358 353 349 346 342 337 333 330 327 325 324 323 320 314 310 307 304 302 305 309 284 227 37 115 146 178 212 222 247 240 240 248 129 153 243 5 98 120 82 0 31
18 17 12 9 5 3 359 354 350 347 344 339 333 329 325 322 321 317 314 310 305 301 297 295 295 303 245 249 77 123 178 177 238 222 242 247 255 107 271 174 173 206 100 103 54 356 112
18 13 10 8 5 1 357 355 352 348 344 338 333 328 326 323 318 315 312 307 304 297 291 285 279 271 262 7 79 151 175 208 226 240 263 258 283 242 251 69 275 111 131 119 113 357 71
19 15 11 9 5 359 356 355 352 347 341 336 333 329 327 322 318 314 310 305 300 296 283 263 257 255 317 51 335 208 212 208 230 254 284 322 311 315 308 133 246 168 138 132 227 179 37
13 11 10 8 4 359 356 354 350 343 340 335 332 331 327 322 318 313 306 302 291 292 262 228 235 232 133 134 223 203 224 218 203 242 249 324 274 264 143 169 185 19 53 319 221 183 122
12 9 8 6 3 1 358 354 350 346 341 335 336 333 327 320 318 313 304 281 313 295 214 227 259 266 177 190 138 168 135 257 205 220 225 228 235 248 240 236 185 156 139 31 244 188 201
8 7 7 6 4 2 359 355 351 345 341 339 339 334 327 320 319 320 313 224 209 202 229 270 132 132 127 86 161 218 183 203 225 221 228 198 221 234 262 40 26 161 183 145 210 137 184
7 8 9 6 5 2 358 353 348 344 341 340 339 335 327 319 317 314 285 256 18 345 277 160 178 107 126 185 165 170 209 220 196 217 225 188 239 257 346 157 225 253 226 112 163 115 187
8 8 7 4 3 2 357 354 349 344 342 340 338 335 329 324 319 261 236 9 328 332 279 166 241 109 143 225 125 157 217 221 217 226 211 253 226 233 290 293 256 258 255 142 140 337 136
11 6 5 3 360 357 356 354 351 345 341 336 335 334 331 322 294 281 243 350 328 343 276 141 196 125 189 226 119 133 227 285 223 250 220 244 265 282 168 252 265 245 68 342 172 192 218
350 351 359 2 0 359 355 353 350 345 338 330 329 330 325 318 318 289 347 304 339 272 263 117 105 75 72 255 127 156 191 227 259 240 267 216 208 203 263 252 254 282 180 243 301 272 156
344 341 347 350 351 350 354 349 348 343 335 327 323 320 323 185 228 259 301 305 278 241 249 137 159 195 207 182 127 95 197 259 299 273 203 279 344 282 244 269 295 303 262 244 253 235 239
349 351 350 348 345 345 348 346 340 337 332 326 319 308 294 310 263 334 318 283 241 256 107 155 210 207 226 129 148 193 183 206 231 205 208 207 241 203 258 276 242 236 262 260 241 237 249
354 353 351 350 344 342 337 336 336 335 333 329 317 308 214 245 269 292 283 253 269 18 271 69 324 236 245 168 140 173 220 228 184 267 280 226 204 202 200 235 264 229 264 261 313 269 316
349 349 342 341 339 337 335 336 337 335 332 333 310 212 234 233 223 259 258 244 238 256 52 264 154 248 182 152 296 221 231 310 78 335 332 335 3 159 271 204 237 264 243 329 138 254 253
334 337 335 338 338 338 337 337 338 337 334 336 312 287 235 199 179 229 249 263 292 334 352 302 276 213 292 161 194 215 209 117 284 111 315 306 274 219 38 234 261 304 64 277 324 251 269
316 324 334 335 337 337 338 339 340 341 335 326 260 256 185 157 194 232 246 256 223 164 244 276 282 295 257 313 252 300 136 113 133 323 282 296 296 139 257 65 6 10 21 329 313 303 286
308 314 324 328 330 335 336 338 341 346 337 340 301 270 176 175 220 236 245 257 115 203 182 268 291 310 316 354 242 243 301 41 67 330 302 304 308 298 351 142 132 127 148 276 288 49 42
305 308 313 320 326 333 334 336 338 349 7 318 298 277 209 220 241 245 253 246 184 256 188 222 239 234 7 285 247 290 2 93 63 297 33 348 308 291 261 100 350 321 255 222 283 279 144
303 303 300 317 322 329 330 333 332 337 350 315 279 276 231 201 241 267 281 293 206 203 282 297 264 345 273 237 256 278 291 245 139 271 67 321 271 286 298 27 153 252 260 162 27 283 215
303 302 297 312 316 323 329 330 329 328 337 293 249 271 300 301 227 232 257 275 283 233 189 241 236 253 252 250 261 217 238 253 203 155 214 251 264 276 286 341 222 211 275 163 177 245 285
302 301 291 308 314 318 325 327 331 331 329 239 288 330 333 301 297 302 291 254 266 266 235 190 222 249 221 255 265 299 340 332 310 162 216 256 260 277 274 270 260 235 243 251 187 46 216
303 302 303 307 310 313 321 325 328 338 336 300 342 340 304 287 288 288 278 278 257 251 274 269 223 212 244 264 226 25 334 299 289 278 301 311 319 321 298 307 339 287 271 273 341 134 202
314 309 306 309 307 309 315 318 326 334 354 314 300 323 289 285 282 278 279 287 278 280 258 260 249 235 200 78 54 274 256 257 236 276 247 231 260 289 283 298 282 273 165 287 306 317 260
308 310 307 306 304 301 311 312 321 312 325 299 310 294 298 290 290 284 282 294 282 304 244 285 255 291 173 155 266 247 234 243 243 232 237 281 252 260 269 264 270 280 51 41 28 5 356
309 303 305 304 305 299 306 310 310 292 314 294 285 289 279 292 254 327 318 315 311 288 259 231 252 327 175 199 212 245 250 239 333 353 210 250 171 256 261 280 280 9 74 49 347 275 32
302 302 303 299 300 306 311 313 313 286 306 299 290 301 275 282 271 283 283 324 334 332 313 336 298 205 222 230 248 237 260 2 235 240 168 201 282 246 230 239 258 53 66 14 274 31 63
312 309 301 298 303 304 307 307 300 292 298 295 304 289 283 283 290 285 292 295 307 294 294 353 294 245 209 228 248 261 292 51 317 289 258 275 230 249 262 263 259 4 333 313 33 353 25
315 308 305 307 309 304 303 310 298 281 284 287 276 349 286 256 289 311 287 277 272 280 300 309 267 263 280 207 229 262 163 229 170 246 241 221 247 290 303 320 198 259 275 320 336 326 344